TimeEDT,TemperatureF,Dew PointF,Humidity,Sea Level PressureIn,VisibilityMPH,Wind Direction,Wind SpeedMPH,Gust SpeedMPH,PrecipitationIn,Events,Conditions,WindDirDegrees,DateUTC
12:14 AM,57.2,35.6,44,30.17,10.0,East,3.5,-,N/A,,Clear,90,2013-06-05 04:14:00
12:34 AM,57.2,35.6,44,30.17,10.0,East,4.6,-,N/A,,Clear,80,2013-06-05 04:34:00
12:55 AM,57.2,35.6,44,30.17,10.0,East,4.6,-,N/A,,Clear,100,2013-06-05 04:55:00
1:14 AM,57.2,35.6,44,30.17,10.0,East,3.5,-,N/A,,Clear,90,2013-06-05 05:14:00
1:34 AM,55.4,33.8,44,30.17,10.0,East,4.6,-,N/A,,Clear,90,2013-06-05 05:34:00
1:54 AM,55.4,32.0,41,30.17,10.0,ENE,4.6,-,N/A,,Clear,70,2013-06-05 05:54:00
2:14 AM,55.4,32.0,41,30.16,10.0,ENE,4.6,-,N/A,,Clear,60,2013-06-05 06:14:00
2:34 AM,55.4,35.6,47,30.16,10.0,ENE,4.6,-,N/A,,Clear,60,2013-06-05 06:34:00
2:54 AM,55.4,35.6,47,30.16,10.0,ENE,4.6,-,N/A,,Clear,60,2013-06-05 06:54:00
3:14 AM,55.4,35.6,47,30.15,10.0,ENE,4.6,-,N/A,,Clear,60,2013-06-05 07:14:00
3:34 AM,55.4,35.6,47,30.15,10.0,NE,3.5,-,N/A,,Clear,50,2013-06-05 07:34:00
3:54 AM,53.6,35.6,51,30.15,10.0,NE,6.9,-,N/A,,Clear,50,2013-06-05 07:54:00
4:14 AM,55.4,33.8,44,30.14,10.0,NE,8.1,-,N/A,,Clear,50,2013-06-05 08:14:00
4:34 AM,55.4,35.6,47,30.14,10.0,NE,6.9,-,N/A,,Clear,40,2013-06-05 08:34:00
4:54 AM,55.4,37.4,51,30.15,10.0,NE,8.1,-,N/A,,Clear,40,2013-06-05 08:54:00
5:14 AM,55.4,41.0,58,30.15,10.0,NE,6.9,-,N/A,,Clear,40,2013-06-05 09:14:00
5:34 AM,55.4,42.8,63,30.15,10.0,NE,6.9,-,N/A,,Clear,40,2013-06-05 09:34:00
5:54 AM,55.4,44.6,67,30.15,10.0,NE,6.9,-,N/A,,Clear,40,2013-06-05 09:54:00
6:14 AM,55.4,44.6,67,30.15,10.0,NE,6.9,-,N/A,,Clear,50,2013-06-05 10:14:00
6:34 AM,55.4,44.6,67,30.15,10.0,NE,4.6,-,N/A,,Clear,40,2013-06-05 10:34:00
6:54 AM,55.4,44.6,67,30.15,10.0,NE,5.8,-,N/A,,Clear,50,2013-06-05 10:54:00
7:15 AM,55.4,44.6,67,30.15,10.0,NE,5.8,-,N/A,,Clear,50,2013-06-05 11:15:00
7:34 AM,55.4,44.6,67,30.16,10.0,ENE,4.6,-,N/A,,Clear,60,2013-06-05 11:34:00
7:54 AM,57.2,44.6,63,30.16,10.0,NE,5.8,-,N/A,,Clear,50,2013-06-05 11:54:00
8:14 AM,57.2,44.6,63,30.16,10.0,ENE,5.8,-,N/A,,Clear,70,2013-06-05 12:14:00
8:34 AM,57.2,42.8,59,30.16,10.0,ENE,5.8,-,N/A,,Clear,60,2013-06-05 12:34:00
8:54 AM,59.0,44.6,59,30.16,10.0,ENE,4.6,-,N/A,,Clear,60,2013-06-05 12:54:00
9:14 AM,60.8,44.6,55,30.16,10.0,East,3.5,-,N/A,,Clear,80,2013-06-05 13:14:00
9:35 AM,60.8,44.6,55,30.17,10.0,NE,3.5,-,N/A,,Clear,40,2013-06-05 13:35:00
9:54 AM,60.8,44.6,55,30.15,10.0,NNE,4.6,-,N/A,,Clear,30,2013-06-05 13:54:00
10:14 AM,62.6,44.6,52,30.15,10.0,NE,3.5,-,N/A,,Clear,50,2013-06-05 14:14:00
10:35 AM,64.4,46.4,52,30.14,10.0,ENE,3.5,-,N/A,,Clear,60,2013-06-05 14:35:00
10:54 AM,64.4,46.4,52,30.13,10.0,NE,3.5,-,N/A,,Clear,50,2013-06-05 14:54:00
11:14 AM,66.2,48.2,52,30.12,10.0,NE,6.9,-,N/A,,Clear,50,2013-06-05 15:14:00
11:34 AM,68.0,48.2,49,30.11,10.0,East,5.8,-,N/A,,Clear,80,2013-06-05 15:34:00
11:54 AM,68.0,48.2,49,30.10,10.0,East,5.8,-,N/A,,Clear,90,2013-06-05 15:54:00
12:14 PM,69.8,48.2,46,30.09,10.0,ENE,5.8,-,N/A,,Clear,70,2013-06-05 16:14:00
12:34 PM,69.8,46.4,43,30.10,10.0,ESE,8.1,-,N/A,,Clear,110,2013-06-05 16:34:00
12:54 PM,69.8,50.0,49,30.09,10.0,SSE,5.8,-,N/A,,Clear,160,2013-06-05 16:54:00
1:14 PM,69.8,51.8,53,30.08,10.0,SSE,5.8,-,N/A,,Clear,160,2013-06-05 17:14:00
1:34 PM,69.8,51.8,53,30.07,10.0,South,4.6,-,N/A,,Clear,170,2013-06-05 17:34:00
1:54 PM,71.6,39.2,31,30.08,10.0,ESE,8.1,-,N/A,,Clear,120,2013-06-05 17:54:00
2:14 PM,73.4,41.0,31,30.07,10.0,East,4.6,-,N/A,,Clear,100,2013-06-05 18:14:00
2:34 PM,71.6,39.2,31,30.07,10.0,ESE,6.9,-,N/A,,Clear,110,2013-06-05 18:34:00
2:54 PM,73.4,37.4,27,30.06,10.0,East,9.2,-,N/A,,Clear,90,2013-06-05 18:54:00
3:14 PM,73.4,35.6,25,30.06,10.0,ESE,5.8,-,N/A,,Clear,120,2013-06-05 19:14:00
3:34 PM,73.4,32.0,22,30.05,10.0,East,5.8,-,N/A,,Clear,90,2013-06-05 19:34:00
3:54 PM,73.4,28.4,19,30.03,10.0,ESE,8.1,-,N/A,,Clear,110,2013-06-05 19:54:00
4:14 PM,73.4,26.6,18,30.03,10.0,ENE,8.1,-,N/A,,Clear,60,2013-06-05 20:14:00
4:34 PM,73.4,32.0,22,30.03,10.0,East,8.1,-,N/A,,Clear,100,2013-06-05 20:34:00
4:54 PM,73.4,33.8,23,30.02,10.0,East,9.2,-,N/A,,Clear,80,2013-06-05 20:54:00
5:14 PM,73.4,35.6,25,30.02,10.0,ESE,8.1,-,N/A,,Clear,110,2013-06-05 21:14:00
5:34 PM,73.4,35.6,25,30.02,10.0,East,9.2,-,N/A,,Clear,90,2013-06-05 21:34:00
5:54 PM,71.6,39.2,31,30.02,10.0,East,8.1,-,N/A,,Clear,100,2013-06-05 21:54:00
6:14 PM,69.8,39.2,33,30.01,10.0,ESE,8.1,-,N/A,,Clear,110,2013-06-05 22:14:00
6:34 PM,69.8,39.2,33,30.01,10.0,ESE,10.4,-,N/A,,Clear,120,2013-06-05 22:34:00
6:54 PM,69.8,39.2,33,30.01,10.0,East,8.1,-,N/A,,Clear,100,2013-06-05 22:54:00
7:14 PM,66.2,37.4,35,30.00,10.0,East,8.1,-,N/A,,Clear,100,2013-06-05 23:14:00
7:34 PM,68.0,37.4,33,30.00,10.0,East,3.5,-,N/A,,Clear,100,2013-06-05 23:34:00
7:54 PM,66.2,35.6,32,29.99,10.0,East,5.8,-,N/A,,Clear,100,2013-06-05 23:54:00
8:14 PM,66.2,37.4,35,29.99,10.0,East,3.5,-,N/A,,Clear,100,2013-06-06 00:14:00
8:34 PM,64.4,39.2,40,30.00,10.0,East,3.5,-,N/A,,Clear,100,2013-06-06 00:34:00
8:54 PM,64.4,41.0,42,30.00,10.0,East,4.6,-,N/A,,Clear,90,2013-06-06 00:54:00
9:14 PM,62.6,42.8,48,29.99,10.0,East,4.6,-,N/A,,Clear,80,2013-06-06 01:14:00
9:34 PM,62.6,44.6,52,29.99,10.0,ENE,4.6,-,N/A,,Clear,70,2013-06-06 01:34:00
9:54 PM,62.6,44.6,52,30.00,10.0,ENE,4.6,-,N/A,,Clear,70,2013-06-06 01:54:00
10:14 PM,62.6,44.6,52,30.00,10.0,Calm,Calm,-,N/A,,Clear,0,2013-06-06 02:14:00
10:34 PM,62.6,44.6,52,30.00,10.0,Calm,Calm,-,N/A,,Clear,0,2013-06-06 02:34:00
10:54 PM,59.0,46.4,63,30.00,10.0,Calm,Calm,-,N/A,,Clear,0,2013-06-06 02:54:00
11:14 PM,59.0,48.2,67,30.00,10.0,Calm,Calm,-,N/A,,Clear,0,2013-06-06 03:14:00
11:34 PM,60.8,48.2,63,30.00,10.0,NE,3.5,-,N/A,,Clear,40,2013-06-06 03:34:00
11:54 PM,60.8,48.2,63,29.99,10.0,NNE,4.6,-,N/A,,Clear,20,2013-06-06 03:54:00